Location: Madden
(51.3728°N, 114.3297°W)
Time: 23:48:48
(UTC+00:00)

SEEDS - Pass Details

Date: 24 April 2025
Orbit: 510 x 513 km, 97.7° (Epoch: 16 May)

Event Time Altitude Azimuth Distance (km) Brightness Sun altitude
Rises 10:54:43 0° 30° (NNE) 2,648 ? -12.5°
Reaches altitude 10° 10:57:45 10° 57° (ENE) 1,754 ? -12.1°
Maximum altitude 10:59:44 14° 89° (E) 1,524 ? -11.9°
Drops below altitude 10° 11:01:43 10° 121° (ESE) 1,745 ? -11.6°
Sets 11:04:42 0° 148° (SSE) 2,625 ? -11.3°
